timestamp,wind_dir_avg,wind_spd_avg,wind_spd_max_dir,wind_spd_gust,battery_voltage,lat,long
2021-01-26 00:04:01+00:00,24.0,6.42,24.0,7.36,12.49,47.59359,-54.27349
2021-01-26 00:14:01+00:00,26.0,5.84,18.0,7.35,12.49,47.59359,-54.27349
2021-01-26 00:24:01+00:00,25.0,7.58,24.0,8.95,12.49,47.59359,-54.27349
2021-01-26 00:34:01+00:00,15.0,7.28,15.0,8.52,12.49,47.59359,-54.27349
2021-01-26 00:44:01+00:00,10.0,5.47,5.0,6.31,12.49,47.59359,-54.27349
2021-01-26 00:54:01+00:00,17.0,5.02,22.0,5.91,12.49,47.59359,-54.27349
2021-01-26 01:04:01+00:00,15.0,5.03,14.0,6.85,12.49,47.59359,-54.27349
2021-01-26 01:14:01+00:00,12.0,5.17,6.0,6.45,12.49,47.59359,-54.27349
2021-01-26 01:24:01+00:00,11.0,4.93,25.0,6.65,12.49,47.59359,-54.27349
2021-01-26 01:34:01+00:00,7.0,5.14,2.0,6.01,12.49,47.59359,-54.27349
2021-01-26 01:44:01+00:00,13.0,5.15,17.0,5.84,12.49,47.59359,-54.27349
2021-01-26 01:54:01+00:00,9.0,5.91,8.0,6.8,12.49,47.59359,-54.27349
2021-01-26 02:04:01+00:00,353.0,5.31,354.0,6.04,12.49,47.59359,-54.27349
2021-01-26 02:14:01+00:00,345.0,4.88,343.0,5.39,12.41,47.59359,-54.27349
2021-01-26 02:24:01+00:00,340.0,3.94,342.0,4.75,12.41,47.59359,-54.27349
2021-01-26 02:34:01+00:00,347.0,5.13,342.0,6.07,12.41,47.59359,-54.27349
2021-01-26 02:44:01+00:00,345.0,5.68,346.0,6.46,12.41,47.59359,-54.27349
2021-01-26 02:54:01+00:00,348.0,5.33,349.0,5.93,12.41,47.59359,-54.27349
2021-01-26 03:04:01+00:00,356.0,4.91,355.0,5.61,12.41,47.59359,-54.27349
2021-01-26 03:14:01+00:00,354.0,5.74,352.0,6.65,12.41,47.59359,-54.27349
2021-01-26 03:24:01+00:00,354.0,5.23,1.0,6.31,12.41,47.59359,-54.27349
2021-01-26 03:34:01+00:00,356.0,5.85,1.0,6.93,12.41,47.59359,-54.27349
2021-01-26 03:44:01+00:00,352.0,6.13,352.0,7.01,12.41,47.59359,-54.27349
2021-01-26 03:54:01+00:00,354.0,5.37,350.0,6.1,12.41,47.59359,-54.27349
2021-01-26 04:04:01+00:00,358.0,5.04,4.0,5.91,12.41,47.59359,-54.27349
2021-01-26 04:14:01+00:00,354.0,7.87,350.0,8.98,12.41,47.59359,-54.27349
2021-01-26 04:24:01+00:00,8.0,6.21,5.0,7.75,12.41,47.59359,-54.27349
2021-01-26 04:34:01+00:00,0.0,7.7,356.0,9.06,12.41,47.59359,-54.27349
2021-01-26 04:44:01+00:00,0.0,7.7,1.0,8.56,12.41,47.59359,-54.27349
2021-01-26 04:54:01+00:00,358.0,6.86,354.0,8.64,12.41,47.59359,-54.27349
2021-01-26 05:04:01+00:00,14.0,5.92,12.0,6.6,12.41,47.59359,-54.27349
2021-01-26 05:14:01+00:00,11.0,5.43,10.0,6.43,12.41,47.59359,-54.27349
2021-01-26 05:24:01+00:00,356.0,5.25,349.0,6.62,12.41,47.59359,-54.27349
2021-01-26 05:34:01+00:00,356.0,5.59,353.0,6.48,12.41,47.59359,-54.27349
2021-01-26 05:44:01+00:00,351.0,7.17,350.0,9.12,12.41,47.59359,-54.27349
2021-01-26 05:54:01+00:00,346.0,10.5,346.0,11.44,12.41,47.59359,-54.27349
2021-01-26 06:04:01+00:00,342.0,9.98,343.0,11.13,12.41,47.59359,-54.27349
2021-01-26 06:14:01+00:00,342.0,8.28,349.0,9.75,12.41,47.59359,-54.27349
2021-01-26 06:24:01+00:00,341.0,8.86,341.0,9.94,12.41,47.59359,-54.27349
2021-01-26 06:34:01+00:00,337.0,8.65,337.0,10.0,12.41,47.59359,-54.27349
2021-01-26 06:44:01+00:00,346.0,8.72,359.0,9.78,12.41,47.59359,-54.27349
2021-01-26 06:54:01+00:00,343.0,8.78,342.0,9.56,12.41,47.59359,-54.27349
2021-01-26 07:04:01+00:00,340.0,7.38,339.0,8.04,12.41,47.59359,-54.27349
2021-01-26 07:14:01+00:00,334.0,6.54,342.0,7.64,12.33,47.59359,-54.27349
2021-01-26 07:24:01+00:00,333.0,5.29,326.0,6.34,12.33,47.59359,-54.27349
2021-01-26 07:34:01+00:00,350.0,6.76,2.0,8.83,12.33,47.59359,-54.27349
2021-01-26 07:44:01+00:00,344.0,7.54,340.0,8.96,12.33,47.59359,-54.27349
2021-01-26 07:54:01+00:00,344.0,8.35,343.0,10.16,12.33,47.59359,-54.27349
2021-01-26 08:04:01+00:00,335.0,7.46,344.0,8.49,12.33,47.59359,-54.27349
2021-01-26 08:14:01+00:00,336.0,7.94,334.0,9.33,12.33,47.59359,-54.27349
2021-01-26 08:24:01+00:00,339.0,9.09,339.0,10.33,12.33,47.59359,-54.27349
2021-01-26 08:34:01+00:00,333.0,7.16,335.0,8.48,12.33,47.59359,-54.27349
2021-01-26 08:44:01+00:00,333.0,6.37,336.0,7.44,12.33,47.59359,-54.27349
2021-01-26 08:54:01+00:00,348.0,8.2,344.0,9.44,12.33,47.59359,-54.27349
2021-01-26 09:04:01+00:00,355.0,7.68,357.0,8.84,12.33,47.59359,-54.27349
2021-01-26 09:14:01+00:00,349.0,6.56,355.0,7.15,12.33,47.59359,-54.27349
2021-01-26 09:24:01+00:00,354.0,6.56,348.0,7.29,12.33,47.59359,-54.27349
2021-01-26 09:34:01+00:00,356.0,6.27,355.0,6.91,12.33,47.59359,-54.27349
2021-01-26 09:44:01+00:00,358.0,6.26,5.0,7.19,12.33,47.59359,-54.27349
2021-01-26 09:54:01+00:00,350.0,6.41,353.0,6.88,12.33,47.59359,-54.27349
2021-01-26 10:04:01+00:00,354.0,8.22,358.0,9.13,12.33,47.59359,-54.27349
2021-01-26 10:14:01+00:00,355.0,8.38,354.0,9.52,12.33,47.59359,-54.27349
2021-01-26 10:24:01+00:00,346.0,7.89,348.0,8.92,12.33,47.59359,-54.27349
2021-01-26 10:34:01+00:00,347.0,6.67,346.0,7.35,12.33,47.59359,-54.27349
2021-01-26 10:44:01+00:00,350.0,5.93,351.0,6.64,12.33,47.59359,-54.27349
2021-01-26 10:54:01+00:00,349.0,6.93,348.0,7.69,12.33,47.59359,-54.27349
2021-01-26 11:04:01+00:00,349.0,7.06,349.0,8.36,12.33,47.59359,-54.27349
2021-01-26 11:14:01+00:00,348.0,7.5,350.0,8.31,12.33,47.59359,-54.27349
2021-01-26 11:24:01+00:00,351.0,7.67,351.0,8.55,12.33,47.59359,-54.27349
2021-01-26 11:34:01+00:00,351.0,9.23,346.0,10.11,12.33,47.59359,-54.27349
2021-01-26 11:44:01+00:00,352.0,8.3,355.0,9.72,12.33,47.59359,-54.27349
2021-01-26 11:54:01+00:00,351.0,8.02,353.0,8.98,12.33,47.59359,-54.27349
2021-01-26 12:04:01+00:00,351.0,7.29,347.0,8.3,12.33,47.59359,-54.27349
2021-01-26 13:14:01+00:00,13.0,10.41,15.0,12.45,12.81,47.59359,-54.27349
2021-01-26 13:24:01+00:00,4.0,9.79,6.0,12.31,12.81,47.59359,-54.27349
2021-01-26 13:34:01+00:00,5.0,9.02,357.0,10.42,12.81,47.59359,-54.27349
2021-01-26 13:44:01+00:00,5.0,9.35,2.0,10.94,12.81,47.59359,-54.27349
2021-01-26 13:54:01+00:00,4.0,8.87,6.0,9.83,12.81,47.59359,-54.27349
2021-01-26 14:04:01+00:00,6.0,9.11,8.0,10.63,12.81,47.59359,-54.27349
2021-01-26 14:14:01+00:00,1.0,10.1,4.0,12.25,13.84,47.59359,-54.27349
2021-01-26 14:24:01+00:00,1.0,9.73,358.0,11.31,13.84,47.59359,-54.27349
2021-01-26 14:34:01+00:00,3.0,8.98,1.0,10.11,13.84,47.59359,-54.27349
2021-01-26 14:44:01+00:00,359.0,9.36,359.0,10.61,13.84,47.59359,-54.27349
2021-01-26 14:54:01+00:00,1.0,9.37,0.0,10.6,13.84,47.59359,-54.27349
2021-01-26 15:04:01+00:00,9.0,8.68,13.0,10.4,13.84,47.59359,-54.27349
2021-01-26 15:14:01+00:00,3.0,10.85,4.0,12.28,13.84,47.59359,-54.27349
2021-01-26 15:24:01+00:00,1.0,9.94,7.0,11.51,13.84,47.59359,-54.27349
2021-01-26 15:34:01+00:00,1.0,11.18,4.0,12.88,13.84,47.59359,-54.27349
2021-01-26 15:44:01+00:00,1.0,10.3,357.0,11.65,13.84,47.59359,-54.27349
2021-01-26 15:54:01+00:00,6.0,11.01,6.0,12.74,13.84,47.59359,-54.27349
2021-01-26 16:04:01+00:00,5.0,10.63,8.0,12.5,13.84,47.59359,-54.27349
2021-01-26 16:14:01+00:00,1.0,10.91,356.0,13.26,13.6,47.59359,-54.27349
2021-01-26 16:24:01+00:00,2.0,11.33,5.0,12.89,13.6,47.59359,-54.27349
2021-01-26 16:34:01+00:00,3.0,10.86,3.0,12.36,13.6,47.59359,-54.27349
2021-01-26 16:44:01+00:00,5.0,9.97,2.0,11.77,13.6,47.59359,-54.27349
2021-01-26 16:54:01+00:00,8.0,9.55,5.0,11.01,13.6,47.59359,-54.27349
2021-01-26 17:04:01+00:00,3.0,10.91,3.0,11.91,13.6,47.59359,-54.27349
2021-01-26 17:14:01+00:00,11.0,11.12,14.0,14.23,13.84,47.59359,-54.27349
2021-01-26 17:24:01+00:00,13.0,10.76,16.0,12.82,13.84,47.59359,-54.27349
2021-01-26 17:34:01+00:00,8.0,9.47,3.0,11.24,13.84,47.59359,-54.27349
2021-01-26 17:44:01+00:00,10.0,11.58,16.0,13.72,13.84,47.59359,-54.27349
2021-01-26 17:54:01+00:00,12.0,10.99,22.0,13.12,13.84,47.59359,-54.27349
2021-01-26 18:04:01+00:00,13.0,10.61,19.0,12.28,13.84,47.59359,-54.27349
2021-01-26 18:14:01+00:00,9.0,10.06,3.0,12.27,13.84,47.59359,-54.27349
2021-01-26 18:24:01+00:00,16.0,10.66,19.0,12.85,13.84,47.59359,-54.27349
2021-01-26 18:34:01+00:00,15.0,9.73,18.0,11.46,13.84,47.59359,-54.27349
2021-01-26 18:44:01+00:00,15.0,10.39,16.0,12.02,13.84,47.59359,-54.27349
2021-01-26 18:54:01+00:00,12.0,10.29,15.0,13.67,13.84,47.59359,-54.27349
2021-01-26 19:04:01+00:00,12.0,10.03,15.0,11.25,13.84,47.59359,-54.27349
2021-01-26 19:14:01+00:00,15.0,9.71,16.0,11.6,13.76,47.59359,-54.27349
2021-01-26 19:24:01+00:00,11.0,11.31,10.0,13.28,13.76,47.59359,-54.27349
2021-01-26 19:34:01+00:00,6.0,9.61,3.0,12.38,13.76,47.59359,-54.27349
2021-01-26 19:44:01+00:00,11.0,10.96,13.0,13.44,13.76,47.59359,-54.27349
2021-01-26 19:54:01+00:00,8.0,10.81,2.0,12.73,13.76,47.59359,-54.27349
2021-01-26 20:04:01+00:00,13.0,13.1,10.0,14.7,13.76,47.59359,-54.27349
2021-01-26 20:14:01+00:00,8.0,12.91,10.0,14.94,13.05,47.59359,-54.27349
2021-01-26 20:24:01+00:00,13.0,11.21,22.0,13.43,13.05,47.59359,-54.27349
2021-01-26 20:34:01+00:00,8.0,10.89,3.0,13.38,13.05,47.59359,-54.27349
2021-01-26 20:44:01+00:00,10.0,11.59,9.0,13.3,13.05,47.59359,-54.27349
2021-01-26 20:54:01+00:00,11.0,12.48,14.0,14.59,13.05,47.59359,-54.27349
2021-01-26 21:04:01+00:00,9.0,10.67,6.0,12.19,13.05,47.59359,-54.27349
2021-01-26 21:14:01+00:00,13.0,10.51,15.0,12.61,12.65,47.59359,-54.27349
2021-01-26 21:24:01+00:00,13.0,9.64,17.0,11.77,12.65,47.59359,-54.27349
2021-01-26 21:34:01+00:00,14.0,10.12,14.0,11.68,12.65,47.59359,-54.27349
2021-01-26 21:44:01+00:00,11.0,10.43,14.0,12.4,12.65,47.59359,-54.27349
2021-01-26 21:54:01+00:00,10.0,10.73,7.0,12.82,12.65,47.59359,-54.27349
2021-01-26 22:04:01+00:00,13.0,10.71,9.0,12.23,12.65,47.59359,-54.27349
2021-01-26 22:14:01+00:00,9.0,9.42,15.0,10.78,12.57,47.59359,-54.27349
2021-01-26 22:24:01+00:00,12.0,10.23,19.0,12.51,12.57,47.59359,-54.27349
2021-01-26 22:34:01+00:00,11.0,8.99,13.0,10.87,12.57,47.59359,-54.27349
2021-01-26 22:44:01+00:00,6.0,8.83,7.0,10.3,12.57,47.59359,-54.27349
2021-01-26 22:54:01+00:00,15.0,9.73,12.0,11.29,12.57,47.59359,-54.27349
2021-01-26 23:04:01+00:00,13.0,9.05,18.0,11.09,12.57,47.59359,-54.27349
2021-01-26 23:14:01+00:00,8.0,9.24,2.0,11.89,12.57,47.59359,-54.27349
2021-01-26 23:24:01+00:00,14.0,10.0,15.0,11.14,12.57,47.59359,-54.27349
2021-01-26 23:34:01+00:00,13.0,8.6,17.0,9.84,12.57,47.59359,-54.27349
2021-01-26 23:44:01+00:00,15.0,10.28,17.0,12.21,12.57,47.59359,-54.27349
2021-01-26 23:54:01+00:00,13.0,10.64,14.0,12.42,12.57,47.59359,-54.27349
